| time (UTC) | temp C | wind direction | speed KPH | gust KPH | rain 1hr cm | rain 24hr cm | rain mn cm | humidity % | barometer mb |
| 20260505041738 | 6 | 275 | 3.2 | 4.8 | 0.00 | 0.30 | 0.00 | 80 | 1010.6 |
| 20260505040237 | 6 | 275 | 1.6 | 4.8 | 0.00 | 0.30 | 0.00 | 80 | 1010.5 |
| 20260505034730 | 6 | 275 | 0.0 | 0.0 | 0.00 | 0.30 | 0.00 | 80 | 1010.5 |
| 20260505033237 | 6 | 275 | 1.6 | 3.2 | 0.00 | 0.30 | 0.00 | 80 | 1010.5 |
| 20260505031736 | 6 | 275 | 3.2 | 9.7 | 0.00 | 0.30 | 0.00 | 80 | 1010.5 |
| 20260505030242 | 6 | 275 | 3.2 | 11.3 | 0.00 | 0.30 | 0.00 | 80 | 1011.2 |
| 20260505024734 | 6 | 275 | 1.6 | 8.0 | 0.00 | 0.30 | 0.00 | 79 | 1011.2 |
| 20260505023241 | 6 | 275 | 1.6 | 8.0 | 0.00 | 0.30 | 0.00 | 78 | 1011.2 |
| 20260505021746 | 6 | 277 | 1.6 | 8.0 | 0.00 | 0.30 | 0.00 | 77 | 1011.2 |
| 20260505020245 | 6 | 237 | 3.2 | 9.7 | 0.00 | 0.30 | 0.00 | 75 | 1011.3 |
| 20260505014744 | 6 | 316 | 4.8 | 11.3 | 0.00 | 0.30 | 0.00 | 74 | 1011.3 |
| 20260505013241 | 6 | 298 | 6.4 | 12.9 | 0.00 | 0.30 | 0.00 | 75 | 1011.4 |
| 20260505011810 | 6 | 285 | 3.2 | 11.3 | 0.00 | 0.30 | 0.00 | 76 | 1011.6 |
| 20260505010242 | 6 | 330 | 4.8 | 9.7 | 0.00 | 0.30 | 0.00 | 75 | 1011.0 |
| 20260505004754 | 6 | 330 | 1.6 | 9.7 | 0.00 | 0.30 | 0.00 | 75 | 1011.0 |
| 20260505003237 | 6 | 330 | 4.8 | 12.9 | 0.00 | 0.30 | 0.00 | 74 | 1011.1 |
| 20260505001743 | 6 | 319 | 8.0 | 12.9 | 0.00 | 0.30 | 0.00 | 75 | 1011.1 |
| 20260505000241 | 7 | 304 | 3.2 | 17.7 | 0.00 | 0.30 | 0.00 | 75 | 1011.9 |
| 20260504234807 | 7 | 325 | 9.7 | 16.1 | 0.00 | 0.30 | 0.00 | 74 | 1011.9 |
| 20260504233234 | 7 | 299 | 3.2 | 16.1 | 0.00 | 0.30 | 0.00 | 74 | 1011.8 |
| 20260504231740 | 7 | 298 | 9.7 | 19.3 | 0.00 | 0.30 | 0.00 | 74 | 1012.0 |
| 20260504230234 | 7 | 295 | 9.7 | 22.5 | 0.00 | 0.30 | 0.00 | 74 | 1011.1 |
| 20260504224740 | 7 | 288 | 12.9 | 19.3 | 0.00 | 0.36 | 0.00 | 75 | 1011.1 |
| 20260504223249 | 7 | 305 | 9.7 | 17.7 | 0.00 | 0.36 | 0.00 | 75 | 1011.0 |
| 20260504221800 | 7 | 296 | 9.7 | 17.7 | 0.00 | 0.36 | 0.00 | 75 | 1011.0 |
| 20260504220249 | 7 | 308 | 8.0 | 19.3 | 0.00 | 0.36 | 0.00 | 73 | 1011.7 |
| 20260504214744 | 8 | 332 | 9.7 | 19.3 | 0.00 | 0.36 | 0.36 | 72 | 1011.7 |
| 20260504213236 | 8 | 302 | 8.0 | 22.5 | 0.00 | 0.36 | 0.36 | 72 | 1011.7 |
| 20260504211744 | 8 | 315 | 6.4 | 17.7 | 0.00 | 0.36 | 0.36 | 71 | 1011.7 |
| 20260504210257 | 8 | 337 | 12.9 | 25.7 | 0.00 | 0.36 | 0.36 | 70 | 1010.9 |
| 20260504204746 | 8 | 330 | 14.5 | 27.4 | 0.00 | 0.36 | 0.36 | 69 | 1010.8 |
| 20260504203235 | 9 | 322 | 16.1 | 25.7 | 0.00 | 0.36 | 0.36 | 70 | 1011.3 |
| 20260504201744 | 9 | 328 | 17.7 | 22.5 | 0.00 | 0.36 | 0.36 | 70 | 1011.1 |
| 20260504200300 | 9 | 346 | 4.8 | 17.7 | 0.00 | 0.36 | 0.36 | 72 | 1010.3 |
| 20260504194746 | 9 | 322 | 11.3 | 20.9 | 0.00 | 0.36 | 0.36 | 74 | 1010.0 |
| 20260504193235 | 9 | 306 | 9.7 | 25.7 | 0.00 | 0.36 | 0.36 | 74 | 1009.9 |
| 20260504191743 | 9 | 328 | 16.1 | 20.9 | 0.00 | 0.36 | 0.36 | 63 | 1009.6 |
| 20260504190235 | 9 | 335 | 17.7 | 27.4 | 0.13 | 0.36 | 0.36 | 63 | 1009.6 |
| 20260504184746 | 11 | 322 | 14.5 | 16.1 | 0.13 | 0.36 | 0.36 | 63 | 1009.2 |
| 20260504183233 | 11 | 315 | 6.4 | 16.1 | 0.13 | 0.36 | 0.36 | 61 | 1009.1 |
| 20260504181803 | 12 | 143 | 0.0 | 16.1 | 0.13 | 0.36 | 0.36 | 58 | 1009.6 |
| 20260504180238 | 13 | 41 | 0.0 | 4.8 | 0.00 | 0.23 | 0.23 | 54 | 1009.1 |
| 20260504174746 | 13 | 62 | 9.7 | 12.9 | 0.00 | 0.23 | 0.23 | 54 | 1008.9 |
| 20260504173250 | 13 | 3 | 9.7 | 12.9 | 0.00 | 0.23 | 0.23 | 52 | 1008.9 |
| 20260504171759 | 13 | 79 | 3.2 | 14.5 | 0.03 | 0.23 | 0.23 | 56 | 1009.0 |
| 20260504170234 | 12 | 23 | 8.0 | 16.1 | 0.05 | 0.23 | 0.23 | 57 | 1008.9 |
| 20260504160235 | 13 | 311 | 3.2 | 12.9 | 0.00 | 0.18 | 0.18 | 52 | 1008.4 |
| 20260504150238 | 14 | 208 | 9.7 | 25.7 | 0.00 | 0.18 | 0.18 | 38 | 1008.4 |
| 20260504140304 | 14 | 272 | 4.8 | 22.5 | 0.00 | 0.18 | 0.18 | 47 | 1008.6 |
| 20260504130242 | 13 | 148 | 1.6 | 11.3 | 0.10 | 0.18 | 0.18 | 48 | 1009.2 |
| 20260504120243 | 14 | 186 | 4.8 | 12.9 | 0.00 | 0.08 | 0.08 | 45 | 1009.5 |
| 20260504110236 | 12 | 287 | 1.6 | 12.9 | 0.00 | 0.08 | 0.08 | 53 | 1010.2 |
| 20260504100242 | 13 | 186 | 1.6 | 8.0 | 0.00 | 0.08 | 0.08 | 57 | 1009.9 |
| 20260504081744 | 11 | 291 | 1.6 | 12.9 | 0.00 | 0.08 | 0.08 | 64 | 1010.2 |
| 20260504080240 | 10 | 291 | 3.2 | 9.7 | 0.00 | 0.08 | 0.08 | 70 | 1010.4 |
| 20260504070233 | 8 | 329 | 8.0 | 12.9 | 0.00 | 0.08 | 0.08 | 76 | 1010.1 |
| 20260504060235 | 8 | 302 | 3.2 | 8.0 | 0.03 | 0.08 | 0.08 | 86 | 1009.6 |
| 20260504050248 | 8 | 272 | 0.0 | 8.0 | 0.00 | 0.05 | 0.05 | 83 | 1008.7 |